• In Uzbekistan
  • List of Countries
  • For 7 days
  • Water Temperature
  • Satellite Maps
  • Weather Map
  • Weather Widgets
  • user-avatar
    Login

    Hourly Weather Kananga

    Today, 12 December, Tuesday

    Time Temperature Precipitation Wind Pressure Humidity
    00:00 +23°C° 0 mm 0 mps 703 mmHg 39%
    01:00 +22°C° 0 mm 0 mps 703 mmHg 41%
    02:00 +22°C° 0 mm 0 mps 704 mmHg 42%
    03:00 +21°C° 0 mm 0 mps 704 mmHg 42%
    04:00 +21°C° 0 mm 0 mps 704 mmHg 43%
    05:00 +22°C° 0 mm 0 mps 704 mmHg 41%
    06:00 +24°C° 0 mm 0 mps 705 mmHg 39%
    07:00 +27°C° 0 mm 0 mps 706 mmHg 37%
    08:00 +30°C° 0 mm 0 mps 706 mmHg 32%
    09:00 +35°C° 0 mm 1 mps 706 mmHg 26%
    10:00 +39°C° 0 mm 1 mps 706 mmHg 21%
    11:00 +40°C° 0 mm 1 mps 706 mmHg 19%
    12:00 +41°C° 0 mm 2 mps 705 mmHg 17%
    13:00 +41°C° 0 mm 2 mps 704 mmHg 16%
    14:00 +41°C° 0 mm 2 mps 704 mmHg 16%
    15:00 +40°C° 0 mm 2 mps 703 mmHg 16%
    16:00 +39°C° 0 mm 2 mps 703 mmHg 16%
    17:00 +36°C° 0 mm 2 mps 703 mmHg 19%
    18:00 +34°C° 0 mm 2 mps 703 mmHg 22%
    19:00 +30°C° 0 mm 1 mps 703 mmHg 25%
    20:00 +29°C° 0 mm 1 mps 703 mmHg 26%
    21:00 +29°C° 0 mm 1 mps 704 mmHg 26%
    22:00 +28°C° 0 mm 1 mps 704 mmHg 27%
    23:00 +27°C° 0 mm 1 mps 704 mmHg 28%

    Tomorrow, 13 December, Wednesday

    Time Temperature Precipitation Wind Pressure Humidity
    00:00 +26°C° 0 mm 1 mps 704 mmHg 29%
    01:00 +26°C° 0 mm 1 mps 704 mmHg 29%
    02:00 +25°C° 0 mm 1 mps 704 mmHg 31%
    03:00 +24°C° 0 mm 1 mps 704 mmHg 32%
    04:00 +23°C° 0 mm 1 mps 703 mmHg 34%
    05:00 +25°C° 0 mm 1 mps 704 mmHg 32%
    06:00 +26°C° 0 mm 1 mps 705 mmHg 30%
    07:00 +27°C° 0 mm 1 mps 705 mmHg 29%
    08:00 +31°C° 0 mm 2 mps 705 mmHg 24%
    09:00 +35°C° 0 mm 2 mps 706 mmHg 18%
    10:00 +39°C° 0 mm 3 mps 706 mmHg 13%
    11:00 +40°C° 0 mm 3 mps 705 mmHg 13%
    12:00 +40°C° 0 mm 3 mps 704 mmHg 12%
    13:00 +42°C° 0 mm 3 mps 704 mmHg 11%
    14:00 +42°C° 0 mm 3 mps 703 mmHg 12%
    15:00 +40°C° 0 mm 3 mps 703 mmHg 12%
    16:00 +40°C° 0 mm 3 mps 702 mmHg 12%
    17:00 +37°C° 0 mm 2 mps 702 mmHg 15%
    18:00 +34°C° 0 mm 2 mps 702 mmHg 18%
    19:00 +30°C° 0 mm 1 mps 703 mmHg 22%
    20:00 +29°C° 0 mm 1 mps 703 mmHg 22%
    21:00 +28°C° 0 mm 1 mps 703 mmHg 23%
    22:00 +27°C° 0 mm 1 mps 704 mmHg 24%
    23:00 +27°C° 0 mm 1 mps 703 mmHg 25%

    Day after tomorrow, 14 December, Thursday

    Time Temperature Precipitation Wind Pressure Humidity
    00:00 +26°C° 0 mm 1 mps 703 mmHg 26%
    01:00 +26°C° 0 mm 1 mps 703 mmHg 27%
    02:00 +25°C° 0 mm 1 mps 703 mmHg 28%
    03:00 +25°C° 0 mm 1 mps 703 mmHg 29%
    04:00 +24°C° 0 mm 1 mps 703 mmHg 30%
    05:00 +25°C° 0 mm 2 mps 703 mmHg 28%
    06:00 +27°C° 0 mm 2 mps 704 mmHg 27%
    07:00 +28°C° 0 mm 2 mps 705 mmHg 26%
    08:00 +31°C° 0 mm 2 mps 706 mmHg 22%
    09:00 +35°C° 0 mm 3 mps 706 mmHg 19%
    10:00 +38°C° 0 mm 3 mps 706 mmHg 15%
    11:00 +40°C° 0 mm 2 mps 705 mmHg 14%
    12:00 +41°C° 0 mm 2 mps 705 mmHg 13%
    13:00 +42°C° 0 mm 2 mps 704 mmHg 11%
    14:00 +41°C° 0 mm 2 mps 703 mmHg 12%
    15:00 +41°C° 0 mm 2 mps 702 mmHg 12%
    16:00 +40°C° 0 mm 2 mps 702 mmHg 12%
    17:00 +36°C° 0 mm 1 mps 702 mmHg 15%
    18:00 +33°C° 0 mm 1 mps 702 mmHg 19%
    19:00 +30°C° 0 mm 1 mps 702 mmHg 22%
    20:00 +29°C° 0 mm 1 mps 703 mmHg 22%
    21:00 +29°C° 0 mm 1 mps 703 mmHg 23%
    22:00 +28°C° 0 mm 1 mps 703 mmHg 24%
    23:00 +28°C° 0 mm 1 mps 703 mmHg 25%

    15 December, Friday

    Time Temperature Precipitation Wind Pressure Humidity
    00:00 +27°C° 0 mm 1 mps 703 mmHg 25%
    01:00 +26°C° 0 mm 1 mps 703 mmHg 26%
    02:00 +26°C° 0 mm 1 mps 703 mmHg 27%
    03:00 +25°C° 0 mm 1 mps 703 mmHg 29%
    04:00 +24°C° 0 mm 1 mps 703 mmHg 30%
    05:00 +25°C° 0 mm 1 mps 704 mmHg 30%
    06:00 +26°C° 0 mm 1 mps 704 mmHg 29%
    07:00 +27°C° 0 mm 1 mps 705 mmHg 29%
    08:00 +30°C° 0 mm 1 mps 705 mmHg 25%
    09:00 +33°C° 0 mm 1 mps 706 mmHg 20%
    10:00 +38°C° 0 mm 2 mps 706 mmHg 15%
    11:00 +39°C° 0 mm 2 mps 705 mmHg 14%
    12:00 +40°C° 0 mm 2 mps 704 mmHg 13%
    13:00 +42°C° 0 mm 2 mps 703 mmHg 12%
    14:00 +41°C° 0 mm 1 mps 703 mmHg 12%
    15:00 +40°C° 0 mm 1 mps 702 mmHg 13%
    16:00 +40°C° 0 mm 1 mps 702 mmHg 13%
    17:00 +36°C° 0 mm 1 mps 702 mmHg 16%
    18:00 +32°C° 0 mm 1 mps 702 mmHg 20%
    19:00 +27°C° 0 mm 0 mps 702 mmHg 23%
    20:00 +26°C° 0 mm 0 mps 702 mmHg 24%
    21:00 +26°C° 0 mm 0 mps 703 mmHg 25%
    22:00 +25°C° 0 mm 0 mps 703 mmHg 26%
    23:00 +26°C° 0 mm 1 mps 702 mmHg 27%

    16 December, Saturday

    Time Temperature Precipitation Wind Pressure Humidity
    00:00 +26°C° 0 mm 1 mps 702 mmHg 29%
    01:00 +25°C° 0 mm 1 mps 702 mmHg 30%
    02:00 +25°C° 0 mm 1 mps 702 mmHg 31%
    03:00 +24°C° 0 mm 1 mps 702 mmHg 32%
    04:00 +24°C° 0 mm 1 mps 702 mmHg 33%
    05:00 +25°C° 0 mm 1 mps 703 mmHg 33%
    06:00 +26°C° 0 mm 1 mps 704 mmHg 32%
    07:00 +25°C° 0 mm 0 mps 705 mmHg 31%
    08:00 +31°C° 0 mm 1 mps 705 mmHg 26%
    09:00 +34°C° 0 mm 1 mps 705 mmHg 20%
    10:00 +39°C° 0 mm 2 mps 706 mmHg 15%
    11:00 +40°C° 0 mm 2 mps 705 mmHg 14%
    12:00 +41°C° 0 mm 2 mps 704 mmHg 12%
    13:00 +42°C° 0 mm 2 mps 703 mmHg 11%
    14:00 +42°C° 0 mm 1 mps 702 mmHg 11%
    15:00 +41°C° 0 mm 1 mps 702 mmHg 11%
    16:00 +40°C° 0 mm 1 mps 702 mmHg 11%
    17:00 +36°C° 0 mm 1 mps 702 mmHg 14%
    18:00 +33°C° 0 mm 1 mps 702 mmHg 17%
    19:00 +30°C° 0 mm 1 mps 702 mmHg 20%
    20:00 +29°C° 0 mm 1 mps 702 mmHg 21%
    21:00 +28°C° 0 mm 1 mps 702 mmHg 21%
    22:00 +28°C° 0 mm 1 mps 703 mmHg 22%
    23:00 +27°C° 0 mm 1 mps 703 mmHg 23%

    17 December, Sunday

    Time Temperature Precipitation Wind Pressure Humidity
    00:00 +27°C° 0 mm 1 mps 702 mmHg 24%
    01:00 +26°C° 0 mm 1 mps 702 mmHg 25%
    02:00 +25°C° 0 mm 1 mps 702 mmHg 27%
    03:00 +24°C° 0 mm 1 mps 702 mmHg 29%
    04:00 +21°C° 0 mm 0 mps 703 mmHg 31%
    05:00 +25°C° 0 mm 1 mps 703 mmHg 29%
    06:00 +26°C° 0 mm 1 mps 704 mmHg 28%
    07:00 +28°C° 0 mm 1 mps 705 mmHg 26%
    08:00 +31°C° 0 mm 1 mps 705 mmHg 22%
    09:00 +36°C° 0 mm 2 mps 705 mmHg 19%
    10:00 +39°C° 0 mm 2 mps 705 mmHg 16%
    11:00 +40°C° 0 mm 2 mps 705 mmHg 15%
    12:00 +41°C° 0 mm 2 mps 704 mmHg 14%
    13:00 +42°C° 0 mm 2 mps 703 mmHg 13%
    14:00 +41°C° 0 mm 2 mps 702 mmHg 14%
    15:00 +41°C° 0 mm 2 mps 702 mmHg 14%
    16:00 +40°C° 0 mm 2 mps 701 mmHg 15%
    17:00 +37°C° 0 mm 2 mps 702 mmHg 20%
    18:00 +33°C° 0 mm 1 mps 702 mmHg 24%
    19:00 +30°C° 0 mm 1 mps 702 mmHg 29%
    20:00 +29°C° 0 mm 1 mps 702 mmHg 31%
    21:00 +26°C° 0 mm 0 mps 703 mmHg 34%
    22:00 +25°C° 0 mm 0 mps 703 mmHg 36%
    23:00 +26°C° 0 mm 1 mps 703 mmHg 40%
    Show more